Location: Allos
(44.2333°N, 6.6333°E)
Time: 02:46:27
(UTC+00:00)

X-37B - Pass Details

Date: 11 March 2021
Orbit: 380 x 394 km, 45.0° (Epoch: 07 April)

Event Time Altitude Azimuth Distance (km) Brightness Sun altitude
Rises 19:14:22 0° 229° (SW) 2,264 5.0 -18.5°
Reaches altitude 10° 19:16:33 10° 219° (SW) 1,415 3.7 -18.9°
Enters shadow 19:18:24 26° 192° (SSW) 819 2.1 -19.2°
